sat.trackr.live / text

‹ back to catalog

STARLINK-36376

NORAD 67590 · 2026-018B

PAYLOAD ACTIVE UNKNOWN

§ Identity

Operator
Country
US
Launch date
2026-01-29
Launch site
AFWTR
Launch vehicle
Mass (kg)
RCS (m²)

Purposes: comms

External: N2YO · Heavens-Above · Gunter

§ Orbital elements

Epoch: 2026-05-25T03:42:10.319040Z

Period
93.91 min
Inclination
97.2847°
Eccentricity
0.0000664
Mean motion
15.33426280 rev/d
Perigee alt
465.1 km
Apogee alt
466.1 km
Semi-major
6,843.7 km
B*
6.3182e-4
RAAN
210.2975°
Arg perigee
104.6874°
Mean anomaly
255.4442°
Rev number
1,905

§ Raw data

STARLINK-363761 67590U 26018B   26145.15428610  .00020365  00000+0  63182-3 0  99972 67590  97.2847 210.2975 0000664 104.6874 255.4442 15.33426280 19053

JSON: /api/v1/satellites/67590 · /tle

For live sub-satellite position, see the globe view (requires WebGL).

§ Visibility from observer

Set your observer location to see the next 7 days of passes ≥ 10°. The values pass through the URL so the page stays shareable.

No JS? Fill the form by hand. The geolocation button needs JavaScript.